Tracking 31027 objects as of 18-Jul-2025
HD Live streaming from Space Station
objects crossing your sky now

IRIDIUM 71

Track IRIDIUM 71 now!
10-day predictions
IRIDIUM 71 is classified as:


NORAD ID: 25320
Int'l Code: 1998-026B
Perigee: 759.8 km
Apogee: 763.7 km
Inclination: 86.4 °
Period: 99.9 minutes
Semi major axis: 7132 km
RCS: 4.0318 m2 (large)
Launch date: May 2, 1998
Source: United States (US)
Launch site: Taiyaun Space Center, China (TSC)
Your satellite tracking list
Your tracking list is empty




NASA's NSSDC Master Catalog

Two Line Element Set (TLE):
1 25320U 98026B   25199.37412132  .00000282  00000-0  81350-4 0  9999
2 25320  86.3946  76.9275 0002674  35.7629 324.3749 14.41177300428089
Source of the keplerian elements: AFSPC